• MPC Preparation (Info)

  • MPEC 2019-V97 : 2019 VO3

    The following Minor Planet Electronic Circular may be linked-to from your own Web pages, but must not otherwise be redistributed electronically.

    A form allowing access to any MPEC is at the bottom of this page.


    Read MPEC 2019-V96 Read MPEC 2019-V98


    M.P.E.C. 2019-V97                              Issued 2019 November 6, 23:12 UT
    
         The Minor Planet Electronic Circulars contain information on unusual
             minor planets and routine data on comets.  They are published
        on behalf of Division F of the International Astronomical Union by the
              Minor Planet Center, Smithsonian Astrophysical Observatory,
                              Cambridge, MA 02138, U.S.A.
    
                 Prepared using the Tamkin Foundation Computer Network
    
                                  MPC@CFA.HARVARD.EDU
                URL https://www.minorplanetcenter.net/    ISSN 1523-6714
    
                                    2019 VO3                                 
    
    
    Observations:
         K19V03O* C2019 11 05.30111 03 01 56.00 +24 23 13.3                VEV097G96
         K19V03O  C2019 11 05.30620 03 01 38.38 +24 24 50.7          19.3 GVEV097G96
         K19V03O  C2019 11 05.31127 03 01 20.76 +24 26 28.6          19.3 GVEV097G96
         K19V03O  C2019 11 05.31635 03 01 03.18 +24 28 03.6                VEV097G96
         K19V03O  C2019 11 05.34613302 59 18.93 +24 37 19.4          19.1 GVEV097H01
         K19V03O  C2019 11 05.35152402 59 00.21 +24 39 00.5          19.2 GVEV097H01
         K19V03O  C2019 11 05.36161502 58 25.11 +24 42 09.0          19.2 GVEV097H01
         K19V03O  C2019 11 05.36953802 57 57.56 +24 44 36.4          19.0 GVEV097H01
         K19V03O  C2019 11 05.44221 02 53 45.12 +25 06 56.8          19.2 GVEV097I52
         K19V03O  C2019 11 05.44260 02 53 43.76 +25 07 04.2          19.0 GVEV097I52
         K19V03O  C2019 11 05.44299 02 53 42.44 +25 07 11.2          19.3 GVEV097I52
         K19V03O  C2019 11 05.44338 02 53 41.09 +25 07 18.5          19.0 GVEV097I52
         K19V03O  C2019 11 05.50438402 50 16.031+25 27 09.49         19.04GVEV097F52
         K19V03O  C2019 11 05.51601602 49 34.970+25 30 37.00         19.17GVEV097F52
         K19V03O  C2019 11 05.52790802 48 52.810+25 34 08.71               VEV097F52
         K19V03O KC2019 11 05.90996 02 26 51.80 +27 21 19.4          19.2 GVEV097203
         K19V03O KC2019 11 05.93666 02 25 15.21 +27 28 26.3          19.5 GVEV097203
         K19V03O KC2019 11 05.95470 02 24 09.79 +27 33 10.2          19.3 GVEV097203
         K19V03O KC2019 11 06.06264 02 17 59.09 +28 00 56.3          19.4 GVEV097W34
         K19V03O pC2019 11 06.06795602 17 18.77 +28 01 37.8          19.2 GVEV097L01
         K19V03O KC2019 11 06.06826302 17 17.67 +28 01 42.2          19.0 GVEV097L01
         K19V03O KC2019 11 06.07160302 17 05.61 +28 02 30.9          19.4 GVEV097L01
         K19V03O KC2019 11 06.07218 02 17 24.58 +28 03 23.7          18.8 GVEV097W34
         K19V03O IC2019 11 06.07353302 16 58.69 +28 02 58.7          19.4 GVEV097L01
         K19V03O KC2019 11 06.08402 02 16 41.74 +28 06 24.3          18.8 GVEV097W34
         K19V03O  C2019 11 06.13836 02 13 30.55 +28 19 41.7          18.7 GVEV097I52
         K19V03O  C2019 11 06.13875 02 13 29.14 +28 19 47.5          18.8 GVEV097I52
         K19V03O  C2019 11 06.13914 02 13 27.72 +28 19 53.4          19.3 GVEV097I52
         K19V03O  C2019 11 06.13952 02 13 26.38 +28 19 58.4          19.1 GVEV097I52
         K19V03O KC2019 11 06.17540502 11 10.04 +28 28 35.7          19.4 VuEV097H21
         K19V03O KC2019 11 06.17662902 11 05.57 +28 28 53.3          19.5 VuEV097H21
         K19V03O KC2019 11 06.17859602 10 58.39 +28 29 21.5          19.7 VuEV097H21
         K19V03O KC2019 11 06.18076602 10 50.48 +28 29 52.7          19.4 VuEV097H21
         K19V03O KC2019 11 06.18162402 10 47.35 +28 30 05.0          19.5 VuEV097H21
         K19V03O pC2019 11 06.94593101 25 52.83 +30 56 05.6          19.6 GVEV097L01
         K19V03O pC2019 11 06.94692601 25 49.32 +30 56 14.1          19.6 GVEV097L01
         K19V03O pC2019 11 06.94776401 25 46.35 +30 56 22.2          19.4 GVEV097L01
         K19V03O pC2019 11 06.94962201 25 39.89 +30 56 37.9          19.7 GVEV097L01
         K19V03O pC2019 11 06.95036601 25 37.28 +30 56 44.2          19.6 GVEV097L01
    
    Observer details:
    203 GiaGa Observatory.  Observers S. Foglia, G. Galli.  Measurer G. Galli.  
        0.36-m f/5.76 Schmidt-Cassegrain + CCD.
    F52 Pan-STARRS 2, Haleakala.  Observers J. Bulger, K. Chambers, T. Dukes, T. 
       Lowe, E. Magnier, A. Schultz, M. Willman.  Measurers S. Chastel, M. Huber, 
       Y. Ramanjooloo, R. Wainscoat, R. Weryk.  1.8-m Ritchey-Chretien + CCD.
    G96 Mt. Lemmon Survey.  Observer E. J. Christensen.  Measurers E. J. 
       Christensen, G. A. Farneth, D. C. Fuls, A. R. Gibbs, A. D. Grauer, H. 
       Groeller, R. A. Kowalski, S. M. Larson, G. J. Leonard, T. A. Pruyne, D. 
       Rankin, R. L. Seaman, F. C. Shelly, K. W. Wierzchos.  1.5-m reflector + 10K 
       CCD.
    H01 Magdalena Ridge Observatory, Socorro.  Observers W. H. Ryan, E. V. Ryan.  
        Measurer W. H. Ryan.  2.4-m f/8.9 Ritchey-Chretien + CCD.
    H21 Astronomical Research Observatory, Westfield.  Observer R. Holmes.  
        Measurers S. Foglia, L. Buzzi, T. Linder, R. Holmes.  0.76-m f/3.0 
       astrograph + CCD.
    I52 Steward Observatory, Mt. Lemmon Station.  Observer D. Rankin.  Measurers E. 
       J. Christensen, G. A. Farneth, D. C. Fuls, A. R. Gibbs, A. D. Grauer, H. 
       Groeller, R. A. Kowalski, S. M. Larson, G. J. Leonard, T. A. Pruyne, D. 
       Rankin, R. L. Seaman, F. C. Shelly, K. W. Wierzchos.  1.0-m reflector + CCD.
    L01 Visnjan Observatory, Tican.  Observers K. Korlevic, F. Valentine.  Measurer 
       K. Korlevic.  1.0-m f/2.9 reflector + CCD.
    W34 Squirrel Valley Observatory, Columbus.  Observer R. L. Flynn.  0.35-m f/1.9 
       Schmidt-Cassegrain + CCD.
    
    Orbital elements:
    2019 VO3                                                 Earth MOID = 0.0352 AU
    Epoch 2019 Apr. 27.0 TT = JDT 2458600.5                 Bell
    M 206.94029              (2000.0)            P               Q
    n   1.76592907     Peri.  178.09262     -0.76165348     +0.57538937
    a   0.6778817      Node    42.09107     -0.60024531     -0.45324024
    e   0.5157501      Incl.   26.39694     -0.24410971     -0.68080861
    P   0.56           H   25.9           G   0.15           U   8
    Residuals in seconds of arc
    191105 G96  0.8-  0.1+    191105 F52  1.1+  0.4-    191106 I52  0.0   0.2+
    191105 G96  0.6-  0.1+    191105 F52  0.4-  0.2+    191106 I52  0.1-  0.3+
    191105 G96  1.3-  1.2+    191105 203  0.3-  0.3-    191106 I52  0.4+  0.4-
    191105 G96  0.8-  0.6-    191105 203  0.0   0.2+    191106 H21  0.1-  0.0
    191105 H01  0.3+  0.2-    191105 203  0.7-  0.1-    191106 H21  0.2-  0.0
    191105 H01  0.5+  0.1-    191106 W34  0.1-  0.7+    191106 H21  0.2-  0.0
    191105 H01  0.3+  0.1-    191106 L01  0.1-  0.2-    191106 H21  0.1-  0.1+
    191105 H01  0.4+  0.2-    191106 L01  0.0   0.3-    191106 H21  0.1-  0.2+
    191105 I52  0.2+  0.6-    191106 L01  0.2-  0.1-    191106 L01  0.0   0.6-
    191105 I52  0.2+  0.2-    191106 W34  0.1-  1.1+    191106 L01  0.2-  0.6-
    191105 I52  0.7+  0.2-    191106 L01  0.3+  0.3-    191106 L01  0.5-  0.3+
    191105 I52  0.8+  0.0     191106 W34  0.7+  0.4+    191106 L01  0.3+  0.0
    191105 F52  0.0   0.1-    191106 I52  0.0   0.3+    191106 L01  0.4+  0.0
    
    Ephemeris:
    2019 VO3                 a,e,i = 0.68, 0.52, 26                  q = 0.3283
    Date    TT    R. A. (2000) Decl.     Delta      r    Elong.  Phase     V
    2019 10 07    07 31 39.3 -14 33 43   0.2461  0.9797    78.3    87.5    25.9
    ...
    2019 10 22    07 06 43.1 -10 36 46   0.1293  1.0194    97.0    75.7    24.1
    ...
    2019 10 30    06 13 54.5 -02 08 49   0.06679 1.0270   118.7    58.0    22.2
    ...
    2019 11 05    03 18 30.5 +22 45 00   0.03572 1.0266   168.0    11.6    19.4
    2019 11 06    02 21 32.5 +27 45 56   0.03553 1.0261   167.1    12.5    19.5
    2019 11 07    01 22 54.5 +31 04 45   0.03738 1.0254   155.8    23.4    19.9
    ...
    2019 11 13    22 08 37.3 +29 29 05   0.07268 1.0180   111.0    65.2    22.6
    ...
    2019 11 21    21 10 19.9 +25 08 31   0.1354  1.0001    91.2    81.0    24.4
    ...
    2019 12 06    20 41 40.7 +22 16 17   0.2508  0.9405    72.4    92.9    26.1
    
    A. U. Tomatic                (C) Copyright 2019 MPC           M.P.E.C. 2019-V97
    


    Read MPEC 2019-V96 Read MPEC 2019-V98


    MPEC number:

    Enter an MPEC number in one of the following forms:

    • 1997-B01 (the full form)
    • J97B01 (the packed version of the full form)
    • B01 (the abbreviated form)